Year,Month,Day,Hour,Minute,Value (Times are PST for windgust in km/hr)
2020,01,17,00,01,4.80
2020,01,17,00,02,3.20
2020,01,17,00,03,8.10
2020,01,17,00,04,3.20
2020,01,17,00,05,3.20
2020,01,17,00,06,8.10
2020,01,17,00,07,6.40
2020,01,17,00,08,8.10
2020,01,17,00,09,3.20
2020,01,17,00,10,4.80
2020,01,17,00,11,4.80
2020,01,17,00,12,8.10
2020,01,17,00,13,4.80
2020,01,17,00,14,4.80
2020,01,17,00,15,3.20
2020,01,17,00,16,6.40
2020,01,17,00,17,4.80
2020,01,17,00,18,3.20
2020,01,17,01,05,8.10
2020,01,17,01,06,4.80
2020,01,17,01,07,6.40
2020,01,17,01,09,14.50
2020,01,17,01,10,14.50
2020,01,17,01,11,8.10
2020,01,17,01,12,8.10
2020,01,17,01,13,3.20
2020,01,17,01,14,9.60
2020,01,17,01,15,4.80
2020,01,17,01,16,4.80
2020,01,17,01,17,6.40
2020,01,17,01,18,8.10
2020,01,17,01,19,4.80
2020,01,17,01,20,4.80
2020,01,17,01,21,12.90
2020,01,17,01,22,6.40
2020,01,17,01,23,4.80
2020,01,17,01,24,9.60
2020,01,17,01,25,6.40
2020,01,17,01,26,11.30
2020,01,17,01,27,6.40
2020,01,17,01,28,8.10
2020,01,17,01,29,1.60
2020,01,17,01,30,3.20
2020,01,17,01,31,6.40
2020,01,17,01,32,9.60
2020,01,17,01,33,6.40
2020,01,17,01,34,3.20
2020,01,17,01,35,4.80
2020,01,17,01,36,11.30
2020,01,17,01,37,3.20
2020,01,17,01,38,3.20
2020,01,17,01,40,8.10
2020,01,17,01,41,6.40
2020,01,17,01,42,4.80
2020,01,17,01,44,1.60
2020,01,17,01,47,3.20
2020,01,17,01,49,4.80
2020,01,17,01,50,4.80
2020,01,17,01,51,9.60
2020,01,17,01,52,4.80
2020,01,17,01,53,4.80
2020,01,17,01,54,3.20
2020,01,17,01,55,4.80
2020,01,17,01,56,6.40
2020,01,17,01,57,4.80
2020,01,17,01,58,4.80
2020,01,17,01,59,9.60
2020,01,17,02,00,1.60
2020,01,17,02,01,4.80
2020,01,17,02,02,4.80
2020,01,17,02,03,4.80
2020,01,17,02,04,4.80
2020,01,17,02,05,3.20
2020,01,17,02,06,11.30
2020,01,17,02,07,11.30
2020,01,17,02,08,3.20
2020,01,17,02,09,6.40
2020,01,17,02,10,6.40
2020,01,17,02,11,3.20
2020,01,17,02,12,6.40
2020,01,17,02,13,3.20
2020,01,17,02,14,4.80
2020,01,17,02,15,4.80
2020,01,17,02,16,6.40
2020,01,17,02,17,4.80
2020,01,17,02,18,3.20
2020,01,17,02,20,1.60
2020,01,17,03,01,1.60
2020,01,17,03,08,1.60
2020,01,17,03,09,3.20
2020,01,17,03,25,3.20
2020,01,17,03,26,3.20
2020,01,17,03,27,1.60
2020,01,17,03,32,1.60
2020,01,17,03,47,3.20
2020,01,17,03,49,3.20
2020,01,17,03,50,4.80
2020,01,17,03,51,3.20
2020,01,17,03,57,4.80
2020,01,17,03,58,4.80
2020,01,17,03,59,4.80
2020,01,17,04,00,4.80
2020,01,17,04,01,4.80
2020,01,17,04,02,4.80
2020,01,17,04,03,3.20
2020,01,17,04,04,6.40
2020,01,17,04,05,8.10
2020,01,17,04,06,4.80
2020,01,17,04,07,6.40
2020,01,17,04,08,6.40
2020,01,17,04,09,4.80
2020,01,17,04,10,4.80
2020,01,17,04,11,3.20
2020,01,17,04,12,4.80
2020,01,17,04,13,4.80
2020,01,17,04,14,4.80
2020,01,17,04,15,4.80
2020,01,17,04,16,4.80
2020,01,17,04,17,4.80
2020,01,17,04,18,4.80
2020,01,17,04,19,6.40
2020,01,17,04,20,4.80
2020,01,17,04,21,4.80
2020,01,17,04,23,1.60
2020,01,17,04,25,4.80
2020,01,17,04,26,4.80
2020,01,17,04,27,4.80
2020,01,17,04,28,3.20
2020,01,17,04,29,3.20
2020,01,17,04,30,3.20
2020,01,17,04,55,6.40
2020,01,17,04,56,6.40
2020,01,17,04,57,6.40
2020,01,17,04,58,6.40
2020,01,17,04,59,6.40
2020,01,17,05,00,6.40
2020,01,17,05,01,4.80
2020,01,17,05,02,3.20
2020,01,17,05,11,4.80
2020,01,17,05,12,6.40
2020,01,17,05,13,6.40
2020,01,17,05,14,6.40
2020,01,17,05,15,6.40
2020,01,17,05,16,4.80
2020,01,17,05,17,4.80
2020,01,17,05,18,4.80
2020,01,17,05,19,4.80
2020,01,17,05,20,4.80
2020,01,17,05,21,3.20
2020,01,17,05,22,3.20
2020,01,17,05,26,3.20
2020,01,17,05,27,4.80
2020,01,17,05,28,4.80
2020,01,17,05,29,4.80
2020,01,17,05,30,3.20
2020,01,17,05,31,3.20
2020,01,17,05,32,3.20
2020,01,17,05,33,3.20
2020,01,17,05,34,3.20
2020,01,17,05,35,3.20
2020,01,17,05,36,3.20
2020,01,17,05,37,3.20
2020,01,17,05,38,3.20
2020,01,17,05,39,3.20
2020,01,17,05,40,3.20
2020,01,17,05,41,3.20
2020,01,17,06,02,3.20
2020,01,17,06,03,4.80
2020,01,17,06,04,4.80
2020,01,17,06,05,4.80
2020,01,17,06,06,6.40
2020,01,17,06,07,6.40
2020,01,17,06,08,4.80
2020,01,17,06,09,4.80
2020,01,17,06,10,4.80
2020,01,17,06,11,4.80
2020,01,17,06,12,4.80
2020,01,17,06,13,4.80
2020,01,17,06,14,4.80
2020,01,17,06,15,4.80
2020,01,17,06,16,4.80
2020,01,17,06,17,4.80
2020,01,17,06,18,3.20
2020,01,17,06,19,3.20
2020,01,17,06,20,3.20
2020,01,17,06,21,1.60
2020,01,17,06,25,3.20
2020,01,17,06,26,4.80
2020,01,17,06,27,4.80
2020,01,17,06,28,4.80
2020,01,17,06,29,3.20
2020,01,17,06,30,4.80
2020,01,17,06,31,4.80
2020,01,17,06,32,6.40
2020,01,17,06,33,6.40
2020,01,17,06,34,6.40
2020,01,17,06,35,4.80
2020,01,17,06,36,4.80
2020,01,17,06,37,1.60
2020,01,17,07,41,6.40
2020,01,17,07,42,6.40
2020,01,17,07,43,6.40
2020,01,17,07,44,8.10
2020,01,17,07,45,6.40
2020,01,17,07,46,4.80
2020,01,17,07,47,4.80
2020,01,17,07,48,4.80
2020,01,17,07,49,6.40
2020,01,17,07,50,6.40
2020,01,17,07,51,6.40
2020,01,17,07,52,6.40
2020,01,17,07,53,6.40
2020,01,17,07,54,8.10
2020,01,17,07,55,6.40
2020,01,17,07,56,8.10
2020,01,17,07,57,8.10
2020,01,17,07,58,8.10
2020,01,17,07,59,6.40
2020,01,17,08,00,6.40
2020,01,17,08,01,6.40
2020,01,17,08,02,6.40
2020,01,17,08,03,8.10
2020,01,17,08,04,6.40
2020,01,17,08,05,6.40
2020,01,17,08,06,6.40
2020,01,17,08,07,6.40
2020,01,17,08,08,4.80
2020,01,17,08,09,6.40
2020,01,17,08,10,6.40
2020,01,17,08,11,6.40
2020,01,17,08,12,6.40
2020,01,17,08,13,6.40
2020,01,17,08,14,6.40
2020,01,17,08,15,6.40
2020,01,17,08,16,6.40
2020,01,17,08,17,4.80
2020,01,17,08,18,6.40
2020,01,17,08,19,6.40
2020,01,17,08,20,6.40
2020,01,17,08,21,4.80
2020,01,17,08,22,6.40
2020,01,17,08,23,6.40
2020,01,17,08,24,6.40
2020,01,17,08,25,6.40
2020,01,17,08,26,6.40
2020,01,17,08,27,6.40
2020,01,17,08,28,6.40
2020,01,17,08,29,6.40
2020,01,17,08,30,8.10
2020,01,17,08,31,6.40
2020,01,17,08,32,6.40
2020,01,17,08,33,4.80
2020,01,17,08,34,4.80
2020,01,17,08,35,6.40
2020,01,17,08,36,4.80
2020,01,17,08,37,4.80
2020,01,17,08,38,4.80
2020,01,17,08,39,4.80
2020,01,17,08,40,4.80
2020,01,17,08,41,4.80
2020,01,17,08,42,4.80
2020,01,17,08,43,4.80
2020,01,17,08,44,4.80
2020,01,17,08,45,4.80
2020,01,17,08,46,4.80
2020,01,17,08,47,3.20
2020,01,17,08,48,4.80
2020,01,17,08,49,6.40
2020,01,17,08,50,4.80
2020,01,17,08,51,4.80
2020,01,17,08,52,4.80
2020,01,17,08,53,4.80
2020,01,17,08,54,4.80
2020,01,17,08,55,4.80
2020,01,17,08,56,6.40
2020,01,17,08,57,4.80
2020,01,17,08,58,8.10
2020,01,17,08,59,6.40
2020,01,17,09,00,6.40
2020,01,17,09,01,6.40
2020,01,17,09,02,6.40
2020,01,17,09,03,6.40
2020,01,17,09,04,6.40
2020,01,17,09,05,6.40
2020,01,17,09,06,4.80
2020,01,17,09,07,4.80
2020,01,17,09,08,6.40
2020,01,17,09,09,6.40
2020,01,17,09,10,6.40
2020,01,17,09,11,6.40
2020,01,17,09,12,6.40
2020,01,17,09,13,6.40
2020,01,17,09,14,6.40
2020,01,17,09,15,4.80
2020,01,17,09,16,6.40
2020,01,17,09,17,6.40
2020,01,17,09,18,4.80
2020,01,17,09,19,6.40
2020,01,17,09,20,6.40
2020,01,17,09,21,4.80
2020,01,17,09,22,6.40
2020,01,17,09,23,6.40
2020,01,17,09,24,4.80
2020,01,17,09,25,6.40
2020,01,17,09,26,6.40
2020,01,17,09,27,8.10
2020,01,17,09,28,8.10
2020,01,17,09,29,8.10
2020,01,17,09,30,8.10
2020,01,17,09,31,8.10
2020,01,17,09,32,8.10
2020,01,17,09,33,6.40
2020,01,17,09,34,8.10
2020,01,17,09,35,9.60
2020,01,17,09,36,9.60
2020,01,17,09,37,14.50
2020,01,17,09,38,14.50
2020,01,17,09,39,12.90
2020,01,17,09,40,9.60
2020,01,17,09,41,9.60
2020,01,17,09,42,9.60
2020,01,17,09,43,11.30
2020,01,17,09,44,8.10
2020,01,17,09,45,8.10
2020,01,17,09,46,8.10
2020,01,17,09,47,8.10
2020,01,17,09,48,8.10
2020,01,17,09,49,8.10
2020,01,17,09,50,8.10
2020,01,17,09,51,8.10
2020,01,17,09,52,8.10
2020,01,17,09,53,8.10
2020,01,17,09,54,8.10
2020,01,17,09,55,8.10
2020,01,17,09,56,8.10
2020,01,17,09,57,9.60
2020,01,17,09,58,11.30
2020,01,17,09,59,9.60
2020,01,17,10,00,9.60
2020,01,17,10,01,9.60
2020,01,17,10,02,9.60
2020,01,17,10,03,9.60
2020,01,17,10,04,11.30
2020,01,17,10,05,11.30
2020,01,17,10,06,8.10
2020,01,17,10,07,11.30
2020,01,17,10,08,11.30
2020,01,17,10,09,11.30
2020,01,17,10,10,9.60
2020,01,17,10,11,9.60
2020,01,17,10,12,11.30
2020,01,17,10,13,9.60
2020,01,17,10,14,9.60
2020,01,17,10,15,9.60
2020,01,17,10,16,11.30
2020,01,17,10,17,11.30
2020,01,17,10,18,9.60
2020,01,17,10,19,9.60
2020,01,17,10,20,11.30
2020,01,17,10,21,11.30
2020,01,17,10,22,11.30
2020,01,17,10,23,11.30
2020,01,17,10,24,11.30
2020,01,17,10,25,9.60
2020,01,17,10,26,8.10
2020,01,17,10,27,9.60
2020,01,17,10,28,9.60
2020,01,17,10,29,9.60
2020,01,17,10,30,9.60
2020,01,17,10,31,8.10
2020,01,17,10,32,8.10
2020,01,17,10,33,9.60
2020,01,17,10,34,9.60
2020,01,17,10,35,9.60
2020,01,17,10,36,11.30
2020,01,17,10,37,9.60
2020,01,17,10,38,11.30
2020,01,17,10,39,8.10
2020,01,17,10,40,9.60
2020,01,17,10,41,9.60
2020,01,17,10,42,9.60
2020,01,17,10,43,11.30
2020,01,17,10,44,9.60
2020,01,17,10,45,9.60
2020,01,17,10,46,9.60
2020,01,17,10,47,9.60
2020,01,17,10,48,8.10
2020,01,17,10,49,8.10
2020,01,17,10,50,9.60
2020,01,17,10,51,8.10
2020,01,17,10,52,9.60
2020,01,17,10,53,8.10
2020,01,17,10,54,8.10
2020,01,17,10,55,9.60
2020,01,17,10,56,8.10
2020,01,17,10,57,8.10
2020,01,17,10,58,8.10
2020,01,17,10,59,8.10
2020,01,17,11,00,8.10
2020,01,17,11,01,8.10
2020,01,17,11,02,8.10
2020,01,17,11,03,9.60
2020,01,17,11,04,11.30
2020,01,17,11,05,9.60
2020,01,17,11,06,9.60
2020,01,17,11,07,9.60
2020,01,17,11,08,9.60
2020,01,17,11,09,11.30
2020,01,17,11,10,11.30
2020,01,17,11,11,8.10
2020,01,17,11,12,9.60
2020,01,17,11,13,9.60
2020,01,17,11,14,11.30
2020,01,17,11,15,14.50
2020,01,17,11,16,9.60
2020,01,17,11,17,11.30
2020,01,17,11,18,14.50
2020,01,17,11,19,12.90
2020,01,17,11,20,14.50
2020,01,17,11,21,11.30
2020,01,17,11,22,12.90
2020,01,17,11,23,14.50
2020,01,17,11,24,8.10
2020,01,17,11,25,9.60
2020,01,17,11,26,9.60
2020,01,17,11,27,14.50
2020,01,17,11,28,9.60
2020,01,17,11,29,8.10
2020,01,17,11,30,11.30
2020,01,17,11,31,11.30
2020,01,17,11,32,9.60
2020,01,17,11,33,9.60
2020,01,17,11,34,9.60
2020,01,17,11,35,9.60
2020,01,17,11,36,8.10
2020,01,17,11,37,11.30
2020,01,17,11,38,12.90
2020,01,17,11,39,9.60
2020,01,17,11,40,8.10
2020,01,17,11,41,9.60
2020,01,17,11,42,8.10
2020,01,17,11,43,8.10
2020,01,17,11,44,8.10
2020,01,17,11,45,6.40
2020,01,17,11,46,8.10
2020,01,17,11,47,8.10
2020,01,17,11,48,8.10
2020,01,17,11,49,8.10
2020,01,17,11,50,9.60
2020,01,17,11,51,11.30
2020,01,17,11,52,11.30
2020,01,17,11,53,11.30
2020,01,17,11,54,11.30
2020,01,17,11,55,8.10
2020,01,17,11,56,9.60
2020,01,17,11,57,8.10
2020,01,17,11,58,6.40
2020,01,17,11,59,11.30
2020,01,17,12,00,8.10
2020,01,17,12,01,6.40
2020,01,17,12,02,9.60
2020,01,17,12,03,8.10
2020,01,17,12,04,9.60
2020,01,17,12,05,9.60
2020,01,17,12,06,8.10
2020,01,17,12,07,8.10
2020,01,17,12,08,9.60
2020,01,17,12,09,9.60
2020,01,17,12,10,8.10
2020,01,17,12,11,11.30
2020,01,17,12,12,8.10
2020,01,17,12,13,8.10
2020,01,17,12,14,8.10
2020,01,17,12,15,11.30
2020,01,17,12,16,9.60
2020,01,17,12,17,6.40
2020,01,17,12,18,9.60
2020,01,17,12,19,6.40
2020,01,17,12,20,11.30
2020,01,17,12,21,8.10
2020,01,17,12,22,11.30
2020,01,17,12,23,11.30
2020,01,17,12,24,16.10
2020,01,17,12,25,12.90
2020,01,17,12,26,11.30
2020,01,17,12,27,9.60
2020,01,17,12,28,11.30
2020,01,17,12,29,14.50
2020,01,17,12,30,9.60
2020,01,17,12,31,11.30
2020,01,17,12,32,14.50
2020,01,17,12,33,11.30
2020,01,17,12,34,17.70
2020,01,17,12,35,14.50
2020,01,17,12,36,11.30
2020,01,17,12,37,14.50
2020,01,17,12,38,11.30
2020,01,17,12,39,14.50
2020,01,17,12,40,12.90
2020,01,17,12,41,9.60
2020,01,17,12,42,14.50
2020,01,17,12,43,14.50
2020,01,17,12,44,11.30
2020,01,17,12,45,8.10
2020,01,17,12,46,8.10
2020,01,17,12,47,14.50
2020,01,17,12,48,9.60
2020,01,17,12,49,16.10
2020,01,17,12,50,11.30
2020,01,17,12,51,11.30
2020,01,17,12,52,8.10
2020,01,17,12,53,6.40
2020,01,17,12,54,6.40
2020,01,17,12,55,17.70
2020,01,17,12,56,16.10
2020,01,17,12,57,16.10
2020,01,17,12,58,17.70
2020,01,17,12,59,11.30
2020,01,17,13,00,9.60
2020,01,17,13,01,8.10
2020,01,17,13,02,16.10
2020,01,17,13,03,16.10
2020,01,17,13,04,8.10
2020,01,17,13,05,16.10
2020,01,17,13,06,8.10
2020,01,17,13,07,11.30
2020,01,17,13,08,8.10
2020,01,17,13,09,9.60
2020,01,17,13,10,14.50
2020,01,17,13,11,11.30
2020,01,17,13,12,9.60
2020,01,17,13,13,11.30
2020,01,17,13,14,14.50
2020,01,17,13,15,11.30
2020,01,17,13,16,11.30
2020,01,17,13,17,11.30
2020,01,17,13,18,11.30
2020,01,17,13,19,9.60
2020,01,17,13,20,11.30
2020,01,17,13,21,11.30
2020,01,17,13,22,14.50
2020,01,17,13,23,14.50
2020,01,17,13,24,14.50
2020,01,17,13,25,9.60
2020,01,17,13,26,11.30
2020,01,17,13,27,12.90
2020,01,17,13,28,16.10
2020,01,17,13,29,14.50
2020,01,17,13,30,9.60
2020,01,17,13,31,9.60
2020,01,17,13,32,11.30
2020,01,17,13,33,14.50
2020,01,17,13,34,12.90
2020,01,17,13,35,17.70
2020,01,17,13,36,16.10
2020,01,17,13,37,11.30
2020,01,17,13,38,8.10
2020,01,17,13,39,17.70
2020,01,17,13,40,11.30
2020,01,17,13,41,16.10
2020,01,17,13,42,14.50
2020,01,17,13,43,17.70
2020,01,17,13,44,11.30
2020,01,17,13,45,14.50
2020,01,17,13,46,11.30
2020,01,17,13,47,11.30
2020,01,17,13,48,12.90
2020,01,17,13,49,11.30
2020,01,17,13,50,9.60
2020,01,17,13,51,14.50
2020,01,17,13,52,11.30
2020,01,17,13,53,12.90
2020,01,17,13,54,9.60
2020,01,17,13,55,17.70
2020,01,17,13,56,16.10
2020,01,17,13,57,17.70
2020,01,17,13,58,16.10
2020,01,17,13,59,16.10
2020,01,17,14,00,16.10
2020,01,17,14,01,14.50
2020,01,17,14,02,11.30
2020,01,17,14,03,11.30
2020,01,17,14,04,16.10
2020,01,17,14,05,20.90
2020,01,17,14,06,16.10
2020,01,17,14,07,8.10
2020,01,17,14,08,16.10
2020,01,17,14,09,11.30
2020,01,17,14,10,11.30
2020,01,17,14,11,16.10
2020,01,17,14,12,16.10
2020,01,17,14,13,19.30
2020,01,17,14,14,9.60
2020,01,17,14,15,16.10
2020,01,17,14,16,19.30
2020,01,17,14,17,16.10
2020,01,17,14,18,14.50
2020,01,17,14,19,12.90
2020,01,17,14,20,11.30
2020,01,17,14,21,11.30
2020,01,17,14,22,14.50
2020,01,17,14,23,11.30
2020,01,17,14,24,14.50
2020,01,17,14,25,11.30
2020,01,17,14,26,14.50
2020,01,17,14,27,14.50
2020,01,17,14,28,11.30
2020,01,17,14,29,16.10
2020,01,17,14,30,9.60
2020,01,17,14,31,11.30
2020,01,17,14,32,11.30
2020,01,17,14,33,11.30
2020,01,17,14,34,11.30
2020,01,17,14,35,14.50
2020,01,17,14,36,12.90
2020,01,17,14,37,11.30
2020,01,17,14,38,11.30
2020,01,17,14,39,11.30
2020,01,17,14,40,14.50
2020,01,17,14,41,11.30
2020,01,17,14,42,14.50
2020,01,17,14,43,17.70
2020,01,17,14,44,17.70
2020,01,17,14,45,16.10
2020,01,17,14,46,17.70
2020,01,17,14,47,16.10
2020,01,17,14,48,19.30
2020,01,17,14,49,11.30
2020,01,17,14,50,6.40
2020,01,17,14,51,16.10
2020,01,17,14,52,14.50
2020,01,17,14,53,16.10
2020,01,17,14,54,16.10
2020,01,17,14,55,14.50
2020,01,17,14,56,19.30
2020,01,17,14,57,17.70
2020,01,17,14,58,11.30
2020,01,17,14,59,12.90
2020,01,17,15,00,12.90
2020,01,17,15,01,16.10
2020,01,17,15,02,17.70
2020,01,17,15,03,17.70
2020,01,17,15,04,16.10
2020,01,17,15,05,14.50
2020,01,17,15,06,14.50
2020,01,17,15,07,19.30
2020,01,17,15,08,11.30
2020,01,17,15,09,16.10
2020,01,17,15,10,11.30
2020,01,17,15,11,16.10
2020,01,17,15,12,9.60
2020,01,17,15,13,11.30
2020,01,17,15,14,9.60
2020,01,17,15,15,6.40
2020,01,17,15,16,14.50
2020,01,17,15,17,17.70
2020,01,17,15,18,11.30
2020,01,17,15,19,9.60
2020,01,17,15,20,9.60
2020,01,17,15,21,11.30
2020,01,17,15,22,11.30
2020,01,17,15,23,12.90
2020,01,17,15,24,9.60
2020,01,17,15,25,11.30
2020,01,17,15,26,16.10
2020,01,17,15,27,16.10
2020,01,17,15,28,8.10
2020,01,17,15,29,8.10
2020,01,17,15,30,11.30
2020,01,17,15,31,14.50
2020,01,17,15,32,11.30
2020,01,17,15,33,6.40
2020,01,17,15,34,12.90
2020,01,17,15,35,8.10
2020,01,17,15,36,9.60
2020,01,17,15,37,6.40
2020,01,17,15,38,9.60
2020,01,17,15,39,9.60
2020,01,17,15,40,6.40
2020,01,17,15,41,8.10
2020,01,17,15,42,8.10
2020,01,17,15,43,8.10
2020,01,17,15,44,8.10
2020,01,17,15,45,9.60
2020,01,17,15,46,9.60
2020,01,17,15,47,8.10
2020,01,17,15,48,8.10
2020,01,17,15,49,9.60
2020,01,17,15,50,9.60
2020,01,17,15,51,11.30
2020,01,17,15,52,11.30
2020,01,17,15,53,11.30
2020,01,17,15,54,9.60
2020,01,17,15,55,11.30
2020,01,17,15,56,9.60
2020,01,17,15,57,8.10
2020,01,17,15,58,9.60
2020,01,17,15,59,9.60
2020,01,17,16,00,14.50
2020,01,17,16,01,11.30
2020,01,17,16,02,9.60
2020,01,17,16,03,12.90
2020,01,17,16,04,9.60
2020,01,17,16,05,9.60
2020,01,17,16,06,9.60
2020,01,17,16,07,6.40
2020,01,17,16,08,4.80
2020,01,17,16,09,4.80
2020,01,17,16,11,8.10
2020,01,17,16,12,4.80
2020,01,17,16,13,8.10
2020,01,17,16,14,9.60
2020,01,17,16,15,6.40
2020,01,17,16,17,3.20
2020,01,17,16,18,6.40
2020,01,17,16,19,6.40
2020,01,17,16,20,9.60
2020,01,17,16,21,20.90
2020,01,17,16,22,19.30
2020,01,17,16,23,14.50
2020,01,17,16,24,19.30
2020,01,17,16,25,17.70
2020,01,17,16,26,17.70
2020,01,17,16,27,14.50
2020,01,17,16,28,17.70
2020,01,17,16,29,12.90
2020,01,17,16,30,20.90
2020,01,17,16,31,25.70
2020,01,17,16,32,16.10
2020,01,17,16,33,17.70
2020,01,17,16,34,20.90
2020,01,17,16,35,16.10
2020,01,17,16,36,19.30
2020,01,17,16,37,14.50
2020,01,17,16,38,8.10
2020,01,17,16,39,8.10
2020,01,17,16,40,3.20
2020,01,17,16,41,3.20
2020,01,17,16,42,4.80
2020,01,17,16,43,8.10
2020,01,17,16,44,6.40
2020,01,17,16,45,6.40
2020,01,17,16,46,8.10
2020,01,17,16,47,4.80
2020,01,17,16,48,9.60
2020,01,17,16,49,4.80
2020,01,17,16,50,6.40
2020,01,17,16,51,4.80
2020,01,17,16,52,4.80
2020,01,17,16,53,9.60
2020,01,17,16,54,12.90
2020,01,17,16,55,8.10
2020,01,17,16,56,9.60
2020,01,17,16,57,9.60
2020,01,17,16,58,8.10
2020,01,17,16,59,8.10
2020,01,17,17,00,4.80
2020,01,17,17,01,4.80
2020,01,17,17,02,6.40
2020,01,17,17,03,6.40
2020,01,17,17,04,1.60
2020,01,17,17,05,1.60
2020,01,17,17,06,6.40
2020,01,17,17,07,3.20
2020,01,17,17,08,1.60
2020,01,17,17,09,6.40
2020,01,17,17,10,9.60
2020,01,17,17,11,6.40
2020,01,17,17,12,11.30
2020,01,17,17,13,16.10
2020,01,17,17,14,19.30
2020,01,17,17,15,11.30
2020,01,17,17,16,11.30
2020,01,17,17,17,8.10
2020,01,17,17,18,6.40
2020,01,17,17,19,9.60
2020,01,17,17,20,14.50
2020,01,17,17,21,9.60
2020,01,17,17,22,12.90
2020,01,17,17,23,9.60
2020,01,17,17,24,1.60
2020,01,17,17,25,6.40
2020,01,17,17,26,9.60
2020,01,17,17,27,6.40
2020,01,17,17,28,8.10
2020,01,17,17,29,6.40
2020,01,17,17,30,6.40
2020,01,17,17,31,6.40
2020,01,17,17,32,4.80
2020,01,17,17,33,9.60
2020,01,17,17,34,8.10
2020,01,17,17,35,3.20
2020,01,17,17,36,9.60
2020,01,17,17,37,14.50
2020,01,17,17,38,9.60
2020,01,17,17,39,11.30
2020,01,17,17,40,3.20
2020,01,17,17,41,9.60
2020,01,17,17,42,4.80
2020,01,17,17,43,16.10
2020,01,17,17,44,17.70
2020,01,17,17,45,11.30
2020,01,17,17,46,11.30
2020,01,17,17,47,14.50
2020,01,17,17,48,16.10
2020,01,17,17,49,12.90
2020,01,17,17,50,9.60
2020,01,17,17,51,9.60
2020,01,17,17,52,6.40
2020,01,17,17,53,14.50
2020,01,17,17,54,8.10
2020,01,17,17,55,4.80
2020,01,17,17,56,4.80
2020,01,17,17,57,12.90
2020,01,17,17,58,17.70
2020,01,17,17,59,9.60
2020,01,17,18,00,11.30
2020,01,17,18,01,14.50
2020,01,17,18,02,11.30
2020,01,17,18,03,6.40
2020,01,17,18,04,9.60
2020,01,17,18,05,8.10
2020,01,17,18,06,9.60
2020,01,17,18,07,20.90
2020,01,17,18,08,20.90
2020,01,17,18,09,9.60
2020,01,17,18,10,8.10
2020,01,17,18,11,8.10
2020,01,17,18,12,8.10
2020,01,17,18,13,16.10
2020,01,17,18,14,11.30
2020,01,17,18,15,16.10
2020,01,17,18,16,17.70
2020,01,17,18,17,17.70
2020,01,17,18,18,14.50
2020,01,17,18,19,17.70
2020,01,17,18,20,11.30
2020,01,17,18,21,6.40
2020,01,17,18,22,9.60
2020,01,17,18,23,17.70
2020,01,17,18,24,16.10
2020,01,17,18,25,14.50
2020,01,17,18,26,9.60
2020,01,17,18,27,6.40
2020,01,17,18,28,8.10
2020,01,17,18,29,8.10
2020,01,17,18,30,8.10
2020,01,17,18,31,6.40
2020,01,17,18,32,9.60
2020,01,17,18,33,12.90
2020,01,17,18,34,8.10
2020,01,17,18,35,8.10
2020,01,17,18,36,9.60
2020,01,17,18,37,11.30
2020,01,17,18,38,9.60
2020,01,17,18,39,14.50
2020,01,17,18,40,19.30
2020,01,17,18,41,16.10
2020,01,17,18,42,17.70
2020,01,17,18,43,9.60
2020,01,17,18,44,11.30
2020,01,17,18,45,14.50
2020,01,17,18,46,11.30
2020,01,17,18,47,16.10
2020,01,17,18,48,16.10
2020,01,17,18,49,9.60
2020,01,17,18,50,6.40
2020,01,17,18,51,11.30
2020,01,17,18,52,9.60
2020,01,17,18,53,11.30
2020,01,17,18,54,11.30
2020,01,17,18,55,6.40
2020,01,17,18,56,4.80
2020,01,17,18,57,4.80
2020,01,17,18,58,11.30
2020,01,17,18,59,12.90
2020,01,17,19,00,14.50
2020,01,17,19,01,14.50
2020,01,17,19,02,12.90
2020,01,17,19,03,20.90
2020,01,17,19,04,14.50
2020,01,17,19,05,9.60
2020,01,17,19,06,9.60
2020,01,17,19,07,9.60
2020,01,17,19,08,11.30
2020,01,17,19,09,9.60
2020,01,17,19,10,6.40
2020,01,17,19,11,14.50
2020,01,17,19,12,22.50
2020,01,17,19,13,19.30
2020,01,17,19,14,14.50
2020,01,17,19,15,1.60
2020,01,17,19,16,9.60
2020,01,17,19,17,12.90
2020,01,17,19,18,4.80
2020,01,17,19,19,6.40
2020,01,17,19,20,11.30
2020,01,17,19,21,17.70
2020,01,17,19,22,11.30
2020,01,17,19,23,17.70
2020,01,17,19,24,19.30
2020,01,17,19,25,16.10
2020,01,17,19,26,17.70
2020,01,17,19,27,16.10
2020,01,17,19,28,17.70
2020,01,17,19,29,17.70
2020,01,17,19,30,14.50
2020,01,17,19,31,16.10
2020,01,17,19,32,25.70
2020,01,17,19,33,20.90
2020,01,17,19,34,19.30
2020,01,17,19,35,14.50
2020,01,17,19,36,11.30
2020,01,17,19,37,29.00
2020,01,17,19,38,29.00
2020,01,17,19,39,20.90
2020,01,17,19,40,19.30
2020,01,17,19,41,27.40
2020,01,17,19,42,20.90
2020,01,17,19,43,19.30
2020,01,17,19,44,24.20
2020,01,17,19,45,17.70
2020,01,17,19,46,16.10
2020,01,17,19,47,33.80
2020,01,17,19,48,20.90
2020,01,17,19,49,20.90
2020,01,17,19,50,17.70
2020,01,17,19,51,20.90
2020,01,17,19,52,30.60
2020,01,17,19,53,27.40
2020,01,17,19,54,22.50
2020,01,17,19,55,27.40
2020,01,17,19,56,20.90
2020,01,17,19,57,32.20
2020,01,17,19,58,22.50
2020,01,17,19,59,25.70
2020,01,17,20,00,33.80
2020,01,17,20,01,27.40
2020,01,17,20,02,29.00
2020,01,17,20,03,30.60
2020,01,17,20,04,27.40
2020,01,17,20,05,25.70
2020,01,17,20,06,19.30
2020,01,17,20,07,25.70
2020,01,17,20,08,29.00
2020,01,17,20,09,33.80
2020,01,17,20,10,37.00
2020,01,17,20,11,32.20
2020,01,17,20,12,25.70
2020,01,17,20,13,27.40
2020,01,17,20,14,30.60
2020,01,17,20,15,29.00
2020,01,17,20,16,24.20
2020,01,17,20,17,30.60
2020,01,17,20,18,30.60
2020,01,17,20,19,29.00
2020,01,17,20,20,32.20
2020,01,17,20,21,38.60
2020,01,17,20,22,29.00
2020,01,17,20,23,35.40
2020,01,17,20,24,35.40
2020,01,17,20,25,32.20
2020,01,17,20,26,35.40
2020,01,17,20,27,17.70
2020,01,17,20,28,33.80
2020,01,17,20,29,25.70
2020,01,17,20,30,29.00
2020,01,17,20,31,35.40
2020,01,17,20,32,27.40
2020,01,17,20,33,29.00
2020,01,17,20,34,20.90
2020,01,17,20,35,20.90
2020,01,17,20,36,24.20
2020,01,17,20,37,32.20
2020,01,17,20,38,25.70
2020,01,17,20,39,29.00
2020,01,17,20,40,27.40
2020,01,17,20,41,27.40
2020,01,17,20,42,32.20
2020,01,17,20,43,33.80
2020,01,17,20,44,29.00
2020,01,17,20,45,25.70
2020,01,17,20,46,22.50
2020,01,17,20,47,22.50
2020,01,17,20,48,25.70
2020,01,17,20,49,27.40
2020,01,17,20,50,25.70
2020,01,17,20,51,20.90
2020,01,17,20,52,17.70
2020,01,17,20,53,25.70
2020,01,17,20,54,30.60
2020,01,17,20,55,22.50
2020,01,17,20,56,29.00
2020,01,17,20,57,20.90
2020,01,17,20,58,25.70
2020,01,17,20,59,30.60
2020,01,17,21,00,19.30
2020,01,17,21,01,22.50
2020,01,17,21,02,25.70
2020,01,17,21,03,25.70
2020,01,17,21,04,29.00
2020,01,17,21,05,20.90
2020,01,17,21,06,32.20
2020,01,17,21,07,37.00
2020,01,17,21,08,38.60
2020,01,17,21,09,20.90
2020,01,17,21,10,29.00
2020,01,17,21,11,29.00
2020,01,17,21,12,40.20
2020,01,17,21,13,35.40
2020,01,17,21,14,35.40
2020,01,17,21,15,27.40
2020,01,17,21,16,25.70
2020,01,17,21,17,19.30
2020,01,17,21,18,14.50
2020,01,17,21,19,22.50
2020,01,17,21,20,19.30
2020,01,17,21,21,27.40
2020,01,17,21,22,27.40
2020,01,17,21,23,32.20
2020,01,17,21,24,22.50
2020,01,17,21,25,20.90
2020,01,17,21,26,17.70
2020,01,17,21,27,41.80
2020,01,17,21,28,27.40
2020,01,17,21,29,24.20
2020,01,17,21,30,24.20
2020,01,17,21,31,24.20
2020,01,17,21,32,27.40
2020,01,17,21,33,29.00
2020,01,17,21,34,29.00
2020,01,17,21,35,27.40
2020,01,17,21,36,33.80
2020,01,17,21,37,19.30
2020,01,17,21,38,19.30
2020,01,17,21,39,24.20
2020,01,17,21,40,33.80
2020,01,17,21,41,19.30
2020,01,17,21,42,19.30
2020,01,17,21,43,22.50
2020,01,17,21,44,20.90
2020,01,17,21,45,20.90
2020,01,17,21,46,22.50
2020,01,17,21,47,22.50
2020,01,17,21,48,27.40
2020,01,17,21,49,25.70
2020,01,17,21,50,20.90
2020,01,17,21,51,22.50
2020,01,17,21,52,29.00
2020,01,17,21,53,30.60
2020,01,17,21,54,27.40
2020,01,17,21,55,29.00
2020,01,17,21,56,24.20
2020,01,17,21,57,33.80
2020,01,17,21,58,24.20
2020,01,17,21,59,20.90
2020,01,17,22,00,27.40
2020,01,17,22,01,30.60
2020,01,17,22,02,33.80
2020,01,17,22,03,32.20
2020,01,17,22,04,24.20
2020,01,17,22,05,37.00
2020,01,17,22,06,35.40
2020,01,17,22,07,38.60
2020,01,17,22,08,25.70
2020,01,17,22,09,24.20